SL-16 DEB, 22500

Orbit data source: Space-Track

SL-16 DEB, 22500 is space debris in LEO originally from a launch on Fri, 25 Dec 1992 UTC launched from the Tyuratam Missile And Space Complex (TTMTR). Debris objects in space refer to the collection of defunct objects orbiting the Earth. Examples of debris include non-operational satellites, rocket bodies, and fragments generated from explosions, collisions, or faulty payload assembly.

Loading next visibility...
Identifier
22500, 1992-093GK
Orbit
LEO
Country
Flag of CISCIS
Related business
Manufacturer
Unknown
Mission
Spacecraft
Bus & Motor
Unknown
Mass
Unknown
Launch date (UTC)
1992-12-25 (33 years ago)
Launch vehicle
Unknown
Launch site
Tyuratam Missile And Space Complex (TTMTR)
Object type
Payload
Rocket body
Debris
Shape & HBR
Unknown shape, 0.1 m
Radar Cross Section
Small (<0.1 m²)

Expand to show TLE details & history
Last TLE update: 9 hours ago

TLE from 9 hours ago
0 SL-16 DEB
1 22500U 92093GK  26133.08177737  .00000438  00000-0  18897-3 0  9998
2 22500  70.8456 107.5919 0060743 186.0075 174.0333 14.29044341725388
Epoch: 2026-05-13T01:57Z
TLE epoch observation values (Epoch: 2026-05-13T01:57:45.564Z)
Latitude
-0.00007°
Longitude
-152.69489°
Altitude
840.677 km
Speed
7.41 km/s
True Right ascension
07h 10m 22s
True Declination
0° 00' 00"
Sunlit
Object was in daylight at epoch
Visualization orbit readout
Latitude
Unknown
Longitude
Unknown
Altitude
Unknown
Speed
Unknown
Apparent Right ascension
Unknown
Apparent Declination
Unknown
Sunlit
N/A
Visualization observer readout
Local Sidereal Time
19:34:30
Azimuth
Unknown
Elevation
Unknown
Doppler factor
Unknown
Orbital elements
Apogee altitude
836.412 km
Perigee altitude
749.295 km
Semi-major axis
7,170.99 km
Eccentricity
0.00607
Inclination
70.8456°
RAAN
107.5919°
Arg. of periapsis
186.0075°
True anomaly
174.10511°
Mean anomaly
174.0333°
Eccentric anomaly
174.06926°
Mean motion
3.57416 °/min
Orbital period
100.72 mins
BSTAR
0.00018897
Loading maneuver chart data...
Computing Atmospheric mass density...
Loading historical data...
Loading historical data...
Loading historical data...
Loading historical data...
Loading historical data...
Loading historical data...
Loading historical data...

Documentation

Showing up to 5 results
|